THY7CO LTFJ-LTCO

Flight info

Callsign THY7CO
Flight time 0h 56m
Altitude 37000
Route VICEN DCT ASMAP UL333 LATGA UT363 GURBU UA4 ERZ UL851 INBAT
Aircraft B738/M-SDE2E3FGHIRWXY/LB1

Departure

Time 2026-05-04 18:09
Airport Istanbul Sabiha Gökçen International Airport (LTFJ)

Arrival

Time 2026-05-04 19:05
Airport Ağrı Airport (LTCO)
Time Latitude Longitude Altitude Speed Heading
2026-05-04 17:48 40.90737 29.32002 319 ft 0 kts 333°
2026-05-04 17:57 40.90733 29.32005 320 ft 2 kts 333°
2026-05-04 17:58 40.90720 29.32014 320 ft 2 kts 333°
2026-05-04 17:58 40.90706 29.32023 320 ft 2 kts 333°
2026-05-04 17:58 40.90696 29.32030 320 ft 0 kts 333°
2026-05-04 17:58 40.90686 29.32039 320 ft 2 kts 304°
2026-05-04 17:59 40.90681 29.32054 320 ft 2 kts 277°
2026-05-04 17:59 40.90682 29.32072 320 ft 0 kts 247°
2026-05-04 17:59 40.90686 29.32081 320 ft 0 kts 243°
2026-05-04 18:00 40.90685 29.32081 320 ft 0 kts 243°
2026-05-04 18:01 40.90685 29.32082 320 ft 0 kts 243°
2026-05-04 18:02 40.90685 29.32081 320 ft 0 kts 243°
2026-05-04 18:02 40.90684 29.32079 320 ft 1 kts 232°
2026-05-04 18:03 40.90665 29.32027 320 ft 10 kts 246°
2026-05-04 18:03 40.90618 29.31898 320 ft 20 kts 243°
2026-05-04 18:03 40.90546 29.31698 320 ft 25 kts 245°
2026-05-04 18:03 40.90467 29.31489 320 ft 24 kts 243°
2026-05-04 18:04 40.90393 29.31288 320 ft 24 kts 244°
2026-05-04 18:04 40.90322 29.31091 320 ft 23 kts 244°
2026-05-04 18:04 40.90070 29.30905 320 ft 20 kts 221°
2026-05-04 18:05 40.89997 29.30738 320 ft 23 kts 244°
2026-05-04 18:05 40.89923 29.30523 320 ft 25 kts 247°
2026-05-04 18:05 40.89850 29.30311 320 ft 24 kts 246°
2026-05-04 18:05 40.89772 29.30112 320 ft 24 kts 242°
2026-05-04 18:06 40.89631 29.29730 321 ft 22 kts 244°
2026-05-04 18:06 40.89567 29.29548 321 ft 21 kts 244°
2026-05-04 18:06 40.89502 29.29376 321 ft 20 kts 242°
2026-05-04 18:07 40.89408 29.29257 321 ft 19 kts 181°
2026-05-04 18:07 40.89294 29.29331 321 ft 17 kts 115°
2026-05-04 18:07 40.89326 29.29481 321 ft 16 kts 63°
2026-05-04 18:07 40.89379 29.29615 321 ft 16 kts 60°
2026-05-04 18:08 40.89430 29.29754 321 ft 23 kts 65°
2026-05-04 18:08 40.89609 29.30244 321 ft 93 kts 63°
2026-05-04 18:08 40.89979 29.31254 321 ft 150 kts 63°
2026-05-04 18:08 40.90442 29.32670 601 ft 175 kts 68°
2026-05-04 18:09 40.91108 29.35573 1942 ft 181 kts 65°
2026-05-04 18:09 40.92372 29.38492 2910 ft 195 kts 45°
2026-05-04 18:10 40.93016 29.40175 3310 ft 225 kts 72°
2026-05-04 18:10 40.92866 29.42348 3810 ft 255 kts 109°
2026-05-04 18:10 40.91731 29.44208 4319 ft 278 kts 142°
2026-05-04 18:10 40.89972 29.45455 4881 ft 292 kts 155°
2026-05-04 18:11 40.88072 29.46483 5589 ft 299 kts 156°
2026-05-04 18:11 40.86162 29.47538 6352 ft 303 kts 154°
2026-05-04 18:11 40.84233 29.48678 6854 ft 306 kts 153°
2026-05-04 18:11 40.82271 29.49897 7194 ft 319 kts 152°
2026-05-04 18:12 40.80310 29.51142 8174 ft 313 kts 151°
2026-05-04 18:12 40.78417 29.52529 8923 ft 314 kts 140°
2026-05-04 18:12 40.76853 29.54513 9621 ft 307 kts 116°
2026-05-04 18:12 40.76038 29.56994 10364 ft 296 kts 98°
2026-05-04 18:13 40.75528 29.59680 10804 ft 308 kts 95°
2026-05-04 18:13 40.75048 29.62443 11245 ft 321 kts 96°
2026-05-04 18:13 40.73920 29.68355 12285 ft 340 kts 98°
2026-05-04 18:14 40.73417 29.71392 13010 ft 338 kts 92°
2026-05-04 18:14 40.73203 29.74423 13674 ft 337 kts 86°
2026-05-04 18:14 40.73158 29.77515 13990 ft 339 kts 84°
2026-05-04 18:15 40.73002 29.83798 14537 ft 352 kts 91°
2026-05-04 18:15 40.72368 29.90127 16107 ft 349 kts 92°
2026-05-04 18:15 40.72020 29.93273 16712 ft 353 kts 93°
2026-05-04 18:16 40.71660 29.96480 17333 ft 355 kts 93°
2026-05-04 18:16 40.71301 29.99666 17886 ft 358 kts 93°
2026-05-04 18:16 40.70930 30.02942 18512 ft 359 kts 93°
2026-05-04 18:17 40.70202 30.09448 19618 ft 365 kts 93°
2026-05-04 18:17 40.69837 30.12723 20179 ft 366 kts 93°
2026-05-04 18:17 40.68926 30.19394 21256 ft 373 kts 97°
2026-05-04 18:18 40.68338 30.22726 21705 ft 378 kts 97°
2026-05-04 18:18 40.67720 30.26054 22237 ft 379 kts 98°
2026-05-04 18:18 40.67089 30.29416 22732 ft 381 kts 98°
2026-05-04 18:18 40.66453 30.32821 23194 ft 384 kts 97°
2026-05-04 18:19 40.65195 30.39631 24158 ft 387 kts 97°
2026-05-04 18:19 40.64557 30.43109 24650 ft 388 kts 97°
2026-05-04 18:19 40.63934 30.46524 25073 ft 391 kts 97°
2026-05-04 18:20 40.63293 30.50047 25447 ft 395 kts 96°
2026-05-04 18:20 40.62662 30.53508 25946 ft 395 kts 97°
2026-05-04 18:20 40.62025 30.57006 26395 ft 396 kts 96°
2026-05-04 18:20 40.61375 30.60571 26722 ft 400 kts 96°
2026-05-04 18:21 40.60735 30.64084 27171 ft 400 kts 96°
2026-05-04 18:21 40.60081 30.67657 27550 ft 402 kts 97°
2026-05-04 18:21 40.59428 30.71230 27902 ft 405 kts 97°
2026-05-04 18:21 40.58767 30.74829 28303 ft 406 kts 96°
2026-05-04 18:22 40.58107 30.78421 28642 ft 409 kts 97°
2026-05-04 18:22 40.57434 30.82077 28976 ft 411 kts 96°
2026-05-04 18:22 40.56721 30.85932 29427 ft 411 kts 96°
2026-05-04 18:22 40.56040 30.89606 29797 ft 412 kts 96°
2026-05-04 18:23 40.55363 30.93258 30114 ft 414 kts 96°
2026-05-04 18:23 40.54687 30.96902 30403 ft 416 kts 96°
2026-05-04 18:23 40.53997 31.00616 30655 ft 419 kts 96°
2026-05-04 18:23 40.53310 31.04310 30868 ft 423 kts 96°
2026-05-04 18:24 40.52602 31.08109 31178 ft 424 kts 97°
2026-05-04 18:24 40.51895 31.11878 31350 ft 428 kts 97°
2026-05-04 18:24 40.51187 31.15656 31616 ft 430 kts 97°
2026-05-04 18:24 40.50470 31.19473 31736 ft 436 kts 97°
2026-05-04 18:25 40.49740 31.23351 31965 ft 438 kts 97°
2026-05-04 18:25 40.49007 31.27228 32197 ft 440 kts 97°
2026-05-04 18:25 40.48264 31.31148 32413 ft 443 kts 98°
2026-05-04 18:25 40.47528 31.35031 32601 ft 445 kts 98°
2026-05-04 18:26 40.46771 31.39017 32787 ft 448 kts 98°
2026-05-04 18:26 40.46020 31.42969 33006 ft 450 kts 98°
2026-05-04 18:26 40.45259 31.46960 33266 ft 451 kts 98°
2026-05-04 18:26 40.44492 31.50963 33536 ft 450 kts 98°
2026-05-04 18:27 40.43724 31.54966 33753 ft 450 kts 98°
2026-05-04 18:27 40.42955 31.58963 34007 ft 449 kts 98°
2026-05-04 18:27 40.42189 31.62940 34268 ft 448 kts 99°
2026-05-04 18:27 40.41424 31.66912 34479 ft 449 kts 99°
2026-05-04 18:28 40.40666 31.70843 34591 ft 453 kts 99°
2026-05-04 18:28 40.39885 31.74888 34710 ft 455 kts 100°
2026-05-04 18:28 40.39108 31.78904 34946 ft 455 kts 100°
2026-05-04 18:28 40.38331 31.82908 35180 ft 454 kts 100°
2026-05-04 18:29 40.37557 31.86887 35419 ft 453 kts 100°
2026-05-04 18:29 40.36783 31.90848 35626 ft 452 kts 101°
2026-05-04 18:29 40.35990 31.94901 35824 ft 453 kts 101°
2026-05-04 18:29 40.35217 31.98849 35968 ft 454 kts 101°
2026-05-04 18:30 40.34124 32.06977 36284 ft 451 kts 92°
2026-05-04 18:30 40.33869 32.11077 36467 ft 451 kts 91°
2026-05-04 18:30 40.33672 32.15157 36656 ft 450 kts 90°
2026-05-04 18:31 40.33479 32.19251 36804 ft 451 kts 91°
2026-05-04 18:31 40.33032 32.27465 36830 ft 454 kts 92°
2026-05-04 18:32 40.32492 32.35685 36826 ft 453 kts 92°
2026-05-04 18:32 40.31902 32.43874 36828 ft 453 kts 93°
2026-05-04 18:33 40.31293 32.52013 36815 ft 453 kts 93°
2026-05-04 18:33 40.30668 32.60212 36815 ft 454 kts 93°
2026-05-04 18:34 40.21526 33.72393 36996 ft 457 kts 95°
2026-05-04 18:34 40.21168 33.76497 36832 ft 458 kts 95°
2026-05-04 18:34 40.20805 33.80610 36801 ft 454 kts 95°
2026-05-04 18:35 40.16215 34.31370 36805 ft 455 kts 96°
2026-05-04 18:35 40.06054 35.37350 36768 ft 455 kts 98°
2026-05-04 18:36 40.05205 35.45593 36774 ft 457 kts 98°
2026-05-04 18:36 40.04350 35.53775 36773 ft 458 kts 98°
2026-05-04 18:37 40.03492 35.61993 36768 ft 458 kts 98°
2026-05-04 18:37 40.00699 35.88576 36767 ft 458 kts 99°
2026-05-04 18:38 39.86053 37.19984 36700 ft 460 kts 100°
2026-05-04 18:38 39.84356 37.34368 36854 ft 463 kts 100°
2026-05-04 18:38 39.83894 37.38569 36832 ft 462 kts 97°
2026-05-04 18:39 39.83602 37.46870 36837 ft 463 kts 91°
2026-05-04 18:39 39.83672 37.55210 36844 ft 464 kts 90°
2026-05-04 18:40 39.83757 37.63623 36850 ft 464 kts 91°
2026-05-04 18:40 39.83780 37.72031 36858 ft 464 kts 92°
2026-05-04 18:41 39.83757 37.80391 36862 ft 462 kts 92°
2026-05-04 18:41 39.83310 38.35980 36901 ft 465 kts 93°
2026-05-04 18:42 39.82561 38.91250 36881 ft 472 kts 95°
2026-05-04 18:42 39.82406 38.99694 36885 ft 470 kts 95°
2026-05-04 18:43 39.82248 39.08190 36878 ft 470 kts 95°
2026-05-04 18:43 39.81961 39.23420 36864 ft 471 kts 95°
2026-05-04 18:44 39.79688 40.22018 36872 ft 474 kts 96°
2026-05-04 18:44 39.79465 40.30275 36911 ft 477 kts 96°
2026-05-04 18:45 39.79224 40.38843 36909 ft 474 kts 96°
2026-05-04 18:45 39.78975 40.47356 36905 ft 475 kts 96°
2026-05-04 18:46 39.77514 40.94157 36895 ft 473 kts 97°
2026-05-04 18:46 39.77369 40.98426 36682 ft 474 kts 97°
2026-05-04 18:46 39.77222 41.02681 36465 ft 471 kts 97°
2026-05-04 18:46 39.77074 41.06943 36266 ft 470 kts 97°
2026-05-04 18:47 39.76928 41.11133 36057 ft 471 kts 97°
2026-05-04 18:47 39.76776 41.15417 35851 ft 471 kts 98°
2026-05-04 18:47 39.76627 41.19640 35635 ft 469 kts 98°
2026-05-04 18:47 39.76477 41.23838 35405 ft 471 kts 98°
2026-05-04 18:48 39.76321 41.28126 35196 ft 472 kts 98°
2026-05-04 18:48 39.76166 41.32350 34991 ft 472 kts 98°
2026-05-04 18:48 39.76009 41.36621 34673 ft 471 kts 98°
2026-05-04 18:48 39.75850 41.40872 34030 ft 475 kts 98°
2026-05-04 18:49 39.75674 41.45269 33311 ft 499 kts 99°
2026-05-04 18:49 39.75498 41.49714 32964 ft 488 kts 98°
2026-05-04 18:49 39.75341 41.54033 32527 ft 476 kts 99°
2026-05-04 18:49 39.75178 41.58367 32205 ft 478 kts 99°
2026-05-04 18:50 39.75024 41.62572 31676 ft 466 kts 99°
2026-05-04 18:50 39.74863 41.66760 30513 ft 473 kts 100°
2026-05-04 18:50 39.74688 41.71030 29643 ft 475 kts 101°
2026-05-04 18:50 39.74518 41.75258 29065 ft 462 kts 100°
2026-05-04 18:51 39.74358 41.79337 28284 ft 455 kts 100°
2026-05-04 18:51 39.74196 41.83378 27419 ft 450 kts 100°
2026-05-04 18:51 39.74033 41.87384 26605 ft 443 kts 100°
2026-05-04 18:51 39.73866 41.91382 25712 ft 437 kts 100°
2026-05-04 18:52 39.73705 41.95227 24896 ft 430 kts 100°
2026-05-04 18:52 39.73542 41.99088 23998 ft 424 kts 100°
2026-05-04 18:52 39.73383 42.02813 23149 ft 416 kts 99°
2026-05-04 18:52 39.73225 42.06522 22485 ft 403 kts 99°
2026-05-04 18:53 39.73076 42.10082 21931 ft 390 kts 100°
2026-05-04 18:53 39.72930 42.13515 21494 ft 376 kts 99°
2026-05-04 18:53 39.72789 42.16801 21075 ft 362 kts 100°
2026-05-04 18:53 39.72650 42.19999 20710 ft 347 kts 100°
2026-05-04 18:54 39.72513 42.23079 20315 ft 336 kts 100°
2026-05-04 18:54 39.72379 42.26034 19838 ft 329 kts 100°
2026-05-04 18:54 39.72239 42.28983 19156 ft 328 kts 100°
2026-05-04 18:54 39.72100 42.31894 18585 ft 324 kts 99°
2026-05-04 18:55 39.71962 42.34804 17971 ft 322 kts 99°
2026-05-04 18:55 39.71691 42.40542 16766 ft 316 kts 99°
2026-05-04 18:55 39.71560 42.43365 16227 ft 311 kts 99°
2026-05-04 18:56 39.71432 42.46145 15707 ft 306 kts 100°
2026-05-04 18:56 39.71305 42.48854 15163 ft 303 kts 99°
2026-05-04 18:56 39.71177 42.51578 14577 ft 301 kts 99°
2026-05-04 18:56 39.71048 42.54259 14030 ft 298 kts 99°
2026-05-04 18:57 39.70921 42.56924 13618 ft 290 kts 99°
2026-05-04 18:57 39.70805 42.59460 13408 ft 274 kts 99°
2026-05-04 18:57 39.70700 42.61816 12953 ft 259 kts 99°
2026-05-04 18:57 39.70587 42.64128 12187 ft 258 kts 99°
2026-05-04 18:58 39.70469 42.66422 11475 ft 256 kts 99°
2026-05-04 18:58 39.70356 42.68688 11168 ft 251 kts 99°
2026-05-04 18:58 39.70208 42.70990 11091 ft 255 kts 104°
2026-05-04 18:58 39.69888 42.73234 10997 ft 252 kts 108°
2026-05-04 18:59 39.69481 42.75434 10897 ft 253 kts 109°
2026-05-04 18:59 39.69065 42.77638 10789 ft 252 kts 109°
2026-05-04 18:59 39.68671 42.79849 10697 ft 252 kts 105°
2026-05-04 18:59 39.68514 42.82152 10591 ft 259 kts 89°
2026-05-04 19:00 39.69091 42.84376 10323 ft 270 kts 55°
2026-05-04 19:00 39.70540 42.85884 10062 ft 269 kts 24°
2026-05-04 19:00 39.72295 42.86747 9712 ft 268 kts 21°
2026-05-04 19:00 39.73941 42.87733 9480 ft 266 kts 30°
2026-05-04 19:01 39.74951 42.88577 9155 ft 266 kts 38°
2026-05-04 19:01 39.76266 42.90193 8826 ft 257 kts 52°
2026-05-04 19:01 39.77244 42.92020 8569 ft 240 kts 61°
2026-05-04 19:01 39.78006 42.93870 8236 ft 227 kts 66°
2026-05-04 19:02 39.78620 42.95705 7954 ft 214 kts 72°
2026-05-04 19:02 39.78730 42.97499 7708 ft 188 kts 114°
2026-05-04 19:02 39.77979 42.98737 7571 ft 169 kts 157°
2026-05-04 19:02 39.76908 42.98982 7333 ft 153 kts 191°
2026-05-04 19:03 39.75847 42.98962 7183 ft 156 kts 174°
2026-05-04 19:03 39.74773 42.99327 6929 ft 159 kts 170°
2026-05-04 19:03 39.73718 42.99702 6728 ft 156 kts 171°
2026-05-04 19:03 39.72659 43.00068 6518 ft 157 kts 171°
2026-05-04 19:04 39.71600 43.00453 6312 ft 157 kts 171°
2026-05-04 19:04 39.70547 43.00817 6113 ft 158 kts 171°
2026-05-04 19:04 39.69467 43.01206 5908 ft 160 kts 169°
2026-05-04 19:04 39.68391 43.01602 5702 ft 159 kts 171°
2026-05-04 19:05 39.67307 43.01961 5480 ft 158 kts 170°
2026-05-04 19:05 39.66272 43.02313 5427 ft 149 kts 167°
2026-05-04 19:05 39.65385 43.02645 5452 ft 107 kts 171°
2026-05-04 19:05 39.64888 43.02800 5467 ft 42 kts 166°
2026-05-04 19:06 39.64717 43.02862 5471 ft 14 kts 139°
2026-05-04 19:06 39.64740 43.02893 5470 ft 6 kts 345°
2026-05-04 19:06 39.64793 43.02869 5470 ft 11 kts 340°
2026-05-04 19:06 39.64898 43.02824 5467 ft 20 kts 344°
2026-05-04 19:07 39.65069 43.02761 5462 ft 28 kts 345°
2026-05-04 19:07 39.65264 43.02690 5456 ft 29 kts 343°
2026-05-04 19:07 39.65459 43.02613 5449 ft 24 kts 343°
2026-05-04 19:07 39.65550 43.02485 5443 ft 22 kts 258°
2026-05-04 19:08 39.65506 43.02285 5433 ft 20 kts 254°
2026-05-04 19:08 39.65490 43.02212 5431 ft 0 kts 254°
2026-05-04 19:08 39.65490 43.02211 5431 ft 0 kts 254°